Le nostre stazioni meteo in Italia

Pubblicità
Il mio iltempo24.it
Achnagart, Gran Bretagna (99191): Temperatura & dewpoint: 09.09.2019 20:00:00 - 15.09.2019 20:00:00 (BST)Achnagart, Gran Bretagna (99191): precipitazioni: 09.09.2019 20:00:00 - 15.09.2019 20:00:00 (BST)
Data & Tempo tt [°C] td [°C] rr [mm]
15.09.2019 20:00:00 - - -
15.09.2019 19:00:00 11,5 4,5 0,0
15.09.2019 18:00:00 12,6 5,2 0,0
15.09.2019 17:00:00 12,4 5,0 0,0
15.09.2019 16:00:00 - - 0,0
15.09.2019 15:00:00 - - 0,0
15.09.2019 14:00:00 - - 0,0
15.09.2019 13:00:00 - - 0,2
15.09.2019 12:00:00 - - 0,0
15.09.2019 11:00:00 - - 0,0
15.09.2019 10:00:00 - - 0,0
15.09.2019 09:00:00 - - 0,0
15.09.2019 08:00:00 - - 0,0
15.09.2019 07:00:00 - - 0,0
15.09.2019 06:00:00 - - 0,0
15.09.2019 05:00:00 - - 0,0
15.09.2019 04:00:00 - - 0,0
15.09.2019 03:00:00 - - 0,0
15.09.2019 02:00:00 - - 0,0
15.09.2019 01:00:00 - - 0,0
15.09.2019 00:00:00 - - 0,0
14.09.2019 23:00:00 - - 0,0
14.09.2019 22:00:00 - - 0,6
14.09.2019 21:00:00 - - 2,8
14.09.2019 20:00:00 - - 4,2
14.09.2019 19:00:00 - - 5,6
14.09.2019 18:00:00 - - 7,0
14.09.2019 17:00:00 - - 9,8
14.09.2019 16:00:00 - - 8,4
14.09.2019 15:00:00 - - 2,2
14.09.2019 14:00:00 - - 1,2
14.09.2019 13:00:00 - - 0,6
14.09.2019 12:00:00 - - 0,0
14.09.2019 11:00:00 - - 0,4
14.09.2019 10:00:00 - - 1,4
14.09.2019 09:00:00 - - 2,2
14.09.2019 08:00:00 - - 2,4
14.09.2019 07:00:00 - - 0,6
14.09.2019 06:00:00 - - 0,0
14.09.2019 05:00:00 - - 0,0
14.09.2019 04:00:00 - - 0,0
14.09.2019 03:00:00 - - 0,0
14.09.2019 02:00:00 - - 0,0
14.09.2019 01:00:00 - - 0,2
14.09.2019 00:00:00 - - 0,0
13.09.2019 23:00:00 - - 0,0
13.09.2019 22:00:00 - - 0,0
13.09.2019 21:00:00 - - 0,0
13.09.2019 20:00:00 - - 0,0
13.09.2019 19:00:00 - - 0,0
13.09.2019 18:00:00 - - 0,0
13.09.2019 17:00:00 - - 0,0
13.09.2019 16:00:00 - - 0,0
13.09.2019 15:00:00 - - 0,0
13.09.2019 14:00:00 - - 0,0
13.09.2019 13:00:00 - - 0,0
13.09.2019 12:00:00 - - 0,0
13.09.2019 11:00:00 - - 0,0
13.09.2019 10:00:00 12,0 8,5 0,2
13.09.2019 09:00:00 12,4 6,7 0,0
13.09.2019 08:00:00 12,3 6,1 0,0
13.09.2019 07:00:00 11,4 7,8 0,0
13.09.2019 06:00:00 11,7 6,6 0,0
13.09.2019 05:00:00 12,0 7,2 0,0
13.09.2019 04:00:00 11,5 7,7 0,0
13.09.2019 03:00:00 11,9 7,4 0,0
13.09.2019 02:00:00 12,1 7,7 0,0
13.09.2019 01:00:00 11,8 7,3 0,6
13.09.2019 00:00:00 12,4 7,3 0,0
12.09.2019 23:00:00 12,0 7,4 1,6
12.09.2019 22:00:00 12,7 7,0 0,0
12.09.2019 21:00:00 12,3 7,2 0,0
12.09.2019 20:00:00 12,1 6,9 0,0
12.09.2019 19:00:00 12,7 7,5 0,0
12.09.2019 18:00:00 12,5 7,6 0,0
12.09.2019 17:00:00 12,0 9,0 0,2
12.09.2019 16:00:00 13,7 8,8 0,4
12.09.2019 15:00:00 11,8 9,4 1,8
12.09.2019 14:00:00 14,0 8,3 0,0
12.09.2019 13:00:00 13,2 7,7 0,4
12.09.2019 12:00:00 13,4 9,3 0,2
12.09.2019 11:00:00 13,4 9,3 0,2
12.09.2019 10:00:00 13,2 9,2 0,0
12.09.2019 09:00:00 12,4 9,8 0,0
12.09.2019 08:00:00 12,1 9,8 0,2
12.09.2019 07:00:00 12,2 9,2 0,4
12.09.2019 06:00:00 11,5 9,6 0,2
12.09.2019 05:00:00 12,9 8,3 0,4
12.09.2019 04:00:00 12,1 9,8 0,4
12.09.2019 03:00:00 12,0 9,7 0,2
12.09.2019 02:00:00 13,1 9,1 0,2
12.09.2019 01:00:00 13,9 8,8 0,0
12.09.2019 00:00:00 12,5 9,2 0,0
11.09.2019 23:00:00 13,3 8,9 0,0
11.09.2019 22:00:00 12,2 10,1 0,6
11.09.2019 21:00:00 13,3 9,7 0,0
11.09.2019 20:00:00 13,1 10,4 0,2
11.09.2019 19:00:00 13,5 9,7 0,2
11.09.2019 18:00:00 13,5 10,3 0,2
11.09.2019 17:00:00 14,6 9,3 0,2
11.09.2019 16:00:00 14,5 9,4 0,0
11.09.2019 15:00:00 14,4 9,2 0,2
11.09.2019 14:00:00 14,3 10,0 0,4
11.09.2019 13:00:00 13,6 10,0 0,2
11.09.2019 12:00:00 13,5 9,9 0,2
11.09.2019 11:00:00 12,3 10,2 0,8
11.09.2019 10:00:00 13,3 9,6 0,2
11.09.2019 09:00:00 13,4 8,8 0,2
11.09.2019 08:00:00 13,6 9,2 0,0
11.09.2019 07:00:00 13,6 8,8 0,0
11.09.2019 06:00:00 13,1 10,0 1,0
11.09.2019 05:00:00 13,4 10,8 0,6
11.09.2019 04:00:00 15,0 9,4 0,0
11.09.2019 03:00:00 15,5 10,0 1,0
11.09.2019 02:00:00 15,9 12,6 1,0
11.09.2019 01:00:00 16,9 13,3 4,6
11.09.2019 00:00:00 16,3 14,3 4,4
10.09.2019 23:00:00 15,7 13,8 6,6
10.09.2019 22:00:00 14,3 13,1 2,0
10.09.2019 21:00:00 14,4 13,0 4,8
10.09.2019 20:00:00 13,4 11,9 6,6
10.09.2019 19:00:00 13,3 11,0 1,6
10.09.2019 18:00:00 12,3 10,0 0,4
10.09.2019 17:00:00 14,0 8,3 0,0
10.09.2019 16:00:00 14,5 7,9 0,0
10.09.2019 15:00:00 14,7 7,8 0,0
10.09.2019 14:00:00 14,4 7,4 0,0
10.09.2019 13:00:00 15,2 7,9 0,0
10.09.2019 12:00:00 15,4 8,8 0,0
10.09.2019 11:00:00 13,0 10,5 0,0
10.09.2019 10:00:00 9,1 9,1 0,0
10.09.2019 09:00:00 6,2 6,2 0,0
10.09.2019 08:00:00 4,7 4,7 0,0
10.09.2019 07:00:00 5,0 5,0 0,0
10.09.2019 06:00:00 5,1 5,0 0,0
10.09.2019 05:00:00 5,4 5,4 0,0
10.09.2019 04:00:00 5,3 4,9 0,0
10.09.2019 03:00:00 7,5 7,2 0,0
10.09.2019 02:00:00 8,6 7,5 0,0
10.09.2019 01:00:00 10,6 10,2 0,0
10.09.2019 00:00:00 10,3 9,4 0,0
09.09.2019 23:00:00 10,7 9,6 0,0
09.09.2019 22:00:00 11,3 9,7 0,0
09.09.2019 21:00:00 11,3 9,6 0,0
09.09.2019 20:00:00 11,7 9,8 0,0

tt = Temperatura
td = dewpoint
rr = precipitazioni

Stazioni seguenti

WeatherPro
AMSI
MeteoEarth